Weather History for Randolph AFB, TX

Change the Weather History Date:

Friday, June 28, 2013

  Actual Average Record
Temperature  
Mean Temperature 88 °F -  
Max Temperature 100 °F 89 °F 100 °F (2013)
Min Temperature 75 °F 72 °F 62 °F (2006)
Cooling Degree Days 22    
Growing Degree Days 38 (Base 50)    
Moisture  
Dew Point 67 °F    
Average Humidity 59    
Maximum Humidity 94    
Minimum Humidity 27    
Precipitation  
Precipitation 0.00 in - - ()
Sea Level Pressure  
Sea Level Pressure 29.92 in    
Wind  
Wind Speed 5 mph (SW)    
Max Wind Speed 9 mph    
Max Gust Speed -    
Visibility 10 miles    
Events      
Averages and records for this station are not official NWS values.
T = Trace of Precipitation, MM = Missing Value Source: NWS Daily Summary

Daily Weather History Graph

Daily Weather History Graph

Search for Another Location

Airport:

Trip Planner

Search our weather history database for the weather conditions in past years. The results will help you decide how hot, cold, wet, or windy it might be!

Date:

Astronomy

Jun. 28, 2013 Rise Set
Actual Time 6:35 AM CDT 8:37 PM CDT
Civil Twilight 6:08 AM CDT 9:04 PM CDT
Nautical Twilight 5:35 AM CDT 9:37 PM CDT
Astronomical Twilight 5:00 AM CDT 10:12 PM CDT
Moon 12:00 AM CDT (6/28) 12:16 PM CDT (6/28)
Length of Visible Light 14h 55m
Length of Day
14h 01m
Waning Gibbous, 66% of the Moon is Illuminated
Jun 28
Waning Gibbous
Jun 29
Last Quarter
Jul 8
New
Jul 15
First Quarter
Jul 22
Full

Hourly Weather History & Observations

Time (CDT) Temp. Heat Index Dew Point Humidity Pressure Visibility Wind Dir Wind Speed Gust Speed Precip Events Conditions
12:58 AM 79.9 °F - 70.7 °F 73% 29.99 in 10.0 mi South 3.5 mph - N/A   Clear
1:58 AM 75.6 °F - 69.6 °F 82% 30.01 in 10.0 mi South 5.8 mph - N/A   Clear
2:58 AM 77.4 °F - 72.0 °F 83% 29.99 in 10.0 mi South 8.1 mph - N/A   Clear
3:58 AM 75.9 °F - 72.0 °F 87% 29.97 in 10.0 mi SSW 5.8 mph - N/A   Clear
4:52 AM 75.2 °F - 73.4 °F 94% 29.98 in 10.0 mi SSW 5.8 mph - N/A   Mostly Cloudy
4:58 AM 75.2 °F - 72.9 °F 92% 29.95 in 10.0 mi SSW 6.9 mph - N/A   Mostly Cloudy
5:58 AM 75.9 °F - 72.9 °F 90% 29.95 in 10.0 mi SSW 9.2 mph - N/A   Overcast
6:43 AM 75.2 °F - 73.4 °F 94% 30.00 in 10.0 mi WSW 8.1 mph - N/A   Mostly Cloudy
6:58 AM 75.7 °F - 72.7 °F 90% 29.97 in 10.0 mi WSW 6.9 mph - N/A   Mostly Cloudy
7:16 AM 75.2 °F - 71.6 °F 89% 30.00 in 10.0 mi WSW 3.5 mph - N/A   Scattered Clouds
7:58 AM 76.8 °F - 72.7 °F 87% 29.99 in 10.0 mi West 5.8 mph - N/A   Partly Cloudy
8:58 AM 80.8 °F 85.2 °F 72.7 °F 76% 30.01 in 10.0 mi Variable 6.9 mph - N/A   Partly Cloudy
9:58 AM 83.7 °F 88.6 °F 71.2 °F 66% 29.99 in 10.0 mi WSW 9.2 mph - N/A   Clear
10:58 AM 87.8 °F 91.8 °F 68.7 °F 53% 29.97 in 10.0 mi WSW 8.1 mph - N/A   Clear
11:58 AM 90.3 °F 93.0 °F 66.6 °F 45% 29.96 in 10.0 mi Variable 5.8 mph - N/A   Clear
12:58 PM 93.4 °F 94.7 °F 63.7 °F 37% 29.94 in 10.0 mi Calm Calm - N/A   Clear
1:58 PM 96.1 °F 97.3 °F 63.0 °F 33% 29.91 in 10.0 mi SW 5.8 mph - N/A   Partly Cloudy
2:58 PM 97.3 °F 98.4 °F 62.1 °F 31% 29.89 in 10.0 mi Variable 2.3 mph - N/A   Clear
3:58 PM 100.0 °F 100.7 °F 60.3 °F 27% 29.86 in 10.0 mi Variable 2.3 mph - N/A   Clear
4:58 PM 100.6 °F 101.6 °F 61.0 °F 27% 29.84 in 10.0 mi SE 5.8 mph - N/A   Clear
5:58 PM 100.0 °F 101.2 °F 61.0 °F 28% 29.82 in 10.0 mi Variable 2.3 mph - N/A   Clear
6:58 PM 100.0 °F 100.7 °F 60.6 °F 27% 29.81 in 10.0 mi SSE 4.6 mph - N/A   Clear
7:58 PM 97.2 °F 97.2 °F 59.5 °F 29% 29.81 in 10.0 mi South 6.9 mph - N/A   Clear
8:58 PM 89.2 °F 89.0 °F 60.4 °F 38% 29.81 in 10.0 mi SSW 5.8 mph - N/A   Clear
9:58 PM 91.6 °F 92.0 °F 62.2 °F 37% 29.82 in 10.0 mi WSW 3.5 mph - N/A   Clear
10:58 PM 90.3 °F 90.5 °F 61.3 °F 38% 29.83 in 10.0 mi West 3.5 mph - N/A   Clear
11:58 PM 88.7 °F 88.8 °F 61.5 °F 40% 29.82 in 10.0 mi West 3.5 mph - N/A   Clear